Location: City of Moscow
(46.7306°N, 116.9989°W)
Time: 06:33:09
(UTC+00:00)

USA 234 - Pass Details

Date: 16 March 2026
Orbit: 1102 x 1106 km, 123.0° (Epoch: 4 January)

Event Time Altitude Azimuth Distance (km) Brightness Sun altitude
Exits shadow 06:36:10 28° 292° (WNW) 1,923 4.8 -41.7°
Drops below altitude 10° 06:39:09 10° 303° (WNW) 2,969 6.0 -41.9°
Sets 06:41:42 0° 307° (NW) 3,930 6.8 -42.1°
